Bowling Green, KY

11:28 PM CDT on September 15, 2019 (GMT -0500)
Bowling Green-Warren County Regional

Weather History for KBWG - August, 2019

Change the Weather History Date:

Sunday, August 25, 2019

  Actual Average Record
Temperature  
Mean Temperature 76 °F 77 °F  
Max Temperature 85 °F 88 °F 102 °F (1943)
Min Temperature 67 °F 65 °F 47 °F (1887)
Degree Days  
Heating Degree Days 0 0  
Month to date heating degree days 0 0  
Since 1 June heating degree days 0 5  
Since 1 July heating degree days 0 0  
Cooling Degree Days 11 12  
Month to date cooling degree days 380 320  
Year to date cooling degree days 1415 1201  
Since 1 June cooling degree days 1149 1048  
Growing Degree Days 24 (Base 50)    
Moisture  
Dew Point 68 °F    
Average Humidity 81    
Maximum Humidity 94    
Minimum Humidity 68    
Precipitation  
Precipitation 0.16 in 0.11 in 1.55 in (1964)
Month to date precipitation 3.09 2.63  
Year to date precipitation 40.13 32.86  
Snow  
Snow 0.00 in 0.00 in 0.00 in ()
Month to date snowfall 0.0 0.0  
Since 1 June snowfall 0.0 0.0  
Since 1 July snowfall 0.0 0.0  
Snow Depth 0.00 in    
Sea Level Pressure  
Sea Level Pressure 29.98 in    
Wind  
Wind Speed 6 mph (SE)    
Max Wind Speed 12 mph    
Max Gust Speed 16 mph    
Visibility 9 miles    
Events Rain , Thunderstorm    
T = Trace of Precipitation, MM = Missing Value Source: NWS Daily Summary

Daily Weather History Graph

Daily Weather History Graph

Search for Another Location

Airport or City:

Astronomy

Aug. 25, 2019 Rise Set
Actual Time 6:10 AM CDT 7:24 PM CDT
Civil Twilight 5:43 AM CDT 7:51 PM CDT
Nautical Twilight 5:11 AM CDT 8:23 PM CDT
Astronomical Twilight 4:37 AM CDT 8:56 PM CDT
Moon 12:49 AM CDT (8/25) 3:39 PM CDT (8/25)
Length of Visible Light 14h 07m
Length of Day
13h 13m
Waning Crescent, 29% of the Moon is Illuminated
Aug 25
Waning Crescent
Aug 30
New
Sep 5
First Quarter
Sep 13
Full
Sep 21
Last Quarter

Hourly Weather History & Observations

Time (CDT) Temp. Heat Index Dew Point Humidity Pressure Visibility Wind Dir Wind Speed Gust Speed Precip Events Conditions
12:53 AM 68.0 °F - 57.9 °F 70% 30.05 in 10.0 mi NE 3.5 mph - N/A   Clear
1:53 AM 68.0 °F - 57.9 °F 70% 30.03 in 10.0 mi Calm Calm - N/A   Clear
2:53 AM 68.0 °F - 57.9 °F 70% 30.01 in 10.0 mi NE 4.6 mph - N/A   Clear
3:53 AM 68.0 °F - 57.9 °F 70% 30.01 in 10.0 mi NE 3.5 mph - N/A   Clear
4:53 AM 66.9 °F - 57.9 °F 73% 30.00 in 10.0 mi ENE 3.5 mph - N/A   Partly Cloudy
5:53 AM 66.9 °F - 59.0 °F 76% 30.01 in 10.0 mi NE 3.5 mph - N/A   Clear
6:53 AM 68.0 °F - 59.0 °F 73% 30.02 in 10.0 mi East 4.6 mph - N/A   Clear
7:53 AM 69.1 °F - 60.1 °F 73% 30.03 in 10.0 mi East 4.6 mph - N/A   Mostly Cloudy
8:32 AM 70.0 °F - 61.0 °F 73% 30.05 in 10.0 mi East 3.5 mph - N/A   Overcast
8:53 AM 71.1 °F - 62.1 °F 73% 30.03 in 10.0 mi East 3.5 mph - N/A   Overcast
9:53 AM 75.0 °F - 64.9 °F 71% 30.02 in 10.0 mi East 4.6 mph - N/A   Overcast
10:53 AM 79.0 °F - 68.0 °F 69% 30.01 in 10.0 mi Variable 3.5 mph - N/A   Partly Cloudy
11:09 AM 81.0 °F 84.4 °F 70.0 °F 69% 30.02 in 10.0 mi Variable 5.8 mph - N/A   Mostly Cloudy
11:53 AM 82.0 °F 86.3 °F 71.1 °F 69% 29.99 in 10.0 mi North - - N/A   Overcast
12:31 PM 82.9 °F 87.5 °F 71.1 °F 67% 30.01 in 10.0 mi South 6.9 mph - N/A   Mostly Cloudy
12:53 PM 82.9 °F 87.5 °F 71.1 °F 67% 29.99 in 10.0 mi South 6.9 mph - N/A   Overcast
1:53 PM 82.9 °F 87.5 °F 71.1 °F 67% 29.97 in 10.0 mi SSE 5.8 mph - N/A   Overcast
2:20 PM 82.9 °F 87.5 °F 71.1 °F 67% 29.97 in 10.0 mi SE 6.9 mph - N/A   Overcast
2:48 PM 82.4 °F 87.2 °F 71.6 °F 70% 29.96 in 10.0 mi ESE 5.8 mph - N/A   Overcast
2:53 PM 82.0 °F 86.7 °F 72.0 °F 71% 29.94 in 10.0 mi ESE 5.8 mph - N/A   Mostly Cloudy
3:11 PM 82.9 °F 87.5 °F 71.1 °F 67% 29.95 in 10.0 mi SE 3.5 mph - N/A Thunderstorm Mostly Cloudy
3:26 PM 82.9 °F 88.0 °F 72.0 °F 69% 29.96 in 10.0 mi Variable 4.6 mph - N/A   Mostly Cloudy
3:53 PM 82.0 °F 86.3 °F 71.1 °F 69% 29.94 in 10.0 mi SSE 8.1 mph - N/A   Partly Cloudy
4:46 PM 78.1 °F - 73.0 °F 84% 29.97 in 7.0 mi South 5.8 mph - 0.04 in Rain , Thunderstorm Light Rain
4:53 PM 78.1 °F - 73.0 °F 84% 29.96 in 6.0 mi South 8.1 mph - 0.05 in Rain , Thunderstorm Rain
5:12 PM 77.0 °F - 73.0 °F 88% 29.97 in 6.0 mi SSW 6.9 mph - 0.01 in Rain Rain
5:53 PM 77.0 °F - 73.0 °F 88% 29.94 in 9.0 mi South 3.5 mph - 0.03 in Rain Light Rain
6:53 PM 75.9 °F - 73.0 °F 91% 29.94 in 6.0 mi ESE 4.6 mph - 0.02 in Rain Light Rain
7:14 PM 75.9 °F - 73.0 °F 91% 29.97 in 7.0 mi SE 5.8 mph - 0.00 in Rain Light Rain
7:53 PM 75.9 °F - 72.0 °F 87% 29.96 in 7.0 mi SE 4.6 mph - 0.01 in Rain Light Rain
8:53 PM 75.0 °F - 72.0 °F 90% 29.96 in 10.0 mi SE 5.8 mph - 0.01 in   Mostly Cloudy
9:53 PM 75.0 °F - 71.1 °F 87% 29.96 in 10.0 mi SE 8.1 mph - 0.01 in   Overcast
10:03 PM 75.0 °F - 71.1 °F 87% 29.98 in 10.0 mi SSE 8.1 mph - 0.01 in   Overcast
10:53 PM 75.0 °F - 71.1 °F 87% 29.96 in 10.0 mi South 9.2 mph - 0.01 in Rain Light Rain
11:42 PM 73.9 °F - 69.1 °F 85% 29.97 in 10.0 mi South 8.1 mph - 0.01 in Rain Light Rain
11:53 PM 73.9 °F - 70.0 °F 87% 29.95 in 8.0 mi SSE 6.9 mph - 0.01 in Rain Rain